Location: Unspecified
(0.0000°N, 0.0000°E)
Time: 00:23:26
(UTC+00:00)

DOVE 4 - Pass Details

Date: 12 December 2017
Orbit: 590 x 802 km, 97.7° (Epoch: 20 July)

Event Time Altitude Azimuth Distance (km) Brightness Sun altitude
Rises 04:22:34 0° 18° (NNE) 2,874 ? -20.9°
Reaches altitude 10° 04:24:48 10° 23° (NNE) 1,950 ? -20.4°
Maximum altitude 04:28:56 56° 101° (ESE) 707 ? -19.4°
Drops below altitude 10° 04:32:59 10° 180° (S) 1,917 ? -18.5°
Sets 04:35:09 0° 184° (S) 2,820 ? -18.0°
